Mee Memorial Hospital (09CA)
King City, CA
Field Elevation: 334
Lat: 36°12.33N  Long: 121°07.95W
CTAF/Unicom Freq: 120.8000
   
     For Weather-by-Phone, call 831-386-7456
Weather Advisories
2019-06-26   23:05 Z
Altimeter 29.94" Hg
Wind 350° @ 15 KT
Gusts 25 KT
Visibility 10 SM
Ceiling FEW190
Temperature 24° C (75° F)
Dewpoint 12° C (54° F)
Relative Humidity 48%
Density Altitude 1,400 feet
Condensation Altitude 6,400 feet
Wind and Runways
Indicated Runway = 27
Headwind = 3 kt
Crosswind = 15 kt
History
 
 
 
More Info
NOAA Forecast
 
 
About Us
Belfort Instrument
 
 
FAA Disclaimer: The data displayed is for advisory purposes only and is not to be used for flight planning or operations. For official data, please call 831-386-7456 to hear the current automated AWOS voice message.
  METAR 09CA 262305Z AUTO 35015G25KT 10 SM FEW190 24/12 A2994